Weather History for Fort Leonard Wood, MO

Change the Weather History Date:

Thursday, January 10, 2013

  Actual Average Record
Temperature  
Mean Temperature 46 °F -  
Max Temperature 52 °F 39 °F 60 °F (2000)
Min Temperature 39 °F 26 °F -2 °F (1997)
Degree Days  
Heating Degree Days 20    
Moisture  
Dew Point 46 °F    
Average Humidity 97    
Maximum Humidity 100    
Minimum Humidity 64    
Precipitation  
Precipitation 0.20 in - - ()
Sea Level Pressure  
Sea Level Pressure 30.04 in    
Wind  
Wind Speed 9 mph (ESE)    
Max Wind Speed 18 mph    
Max Gust Speed 20 mph    
Visibility 5 miles    
Events Rain    
Averages and records for this station are not official NWS values.
T = Trace of Precipitation, MM = Missing Value Source: NWS Daily Summary

Daily Weather History Graph

Daily Weather History Graph

Search for Another Location

Airport:

Trip Planner

Search our weather history database for the weather conditions in past years. The results will help you decide how hot, cold, wet, or windy it might be!

Date:

Astronomy

Jan. 10, 2013 Rise Set
Actual Time 7:23 AM CST 5:08 PM CST
Civil Twilight 6:54 AM CST 5:37 PM CST
Nautical Twilight 6:22 AM CST 6:10 PM CST
Astronomical Twilight 5:50 AM CST 6:41 PM CST
Moon 6:04 AM CST (1/10) 4:16 PM CST (1/10)
Length of Visible Light 10h 42m
Length of Day
9h 45m
Waning Crescent, 2% of the Moon is Illuminated
Jan 10
Waning Crescent
Jan 11
New
Jan 18
First Quarter
Jan 26
Full
Feb 3
Last Quarter

Hourly Weather History & Observations

Time (CST) Temp. Windchill Dew Point Humidity Pressure Visibility Wind Dir Wind Speed Gust Speed Precip Events Conditions
12:55 AM 46.4 °F 41.5 °F 34.7 °F 64% 30.34 in 10.0 mi East 10.4 mph - N/A   Overcast
1:43 AM 46.4 °F 40.7 °F 35.6 °F 66% 30.32 in 10.0 mi East 12.7 mph - N/A   Light Drizzle
1:55 AM 45.9 °F 40.8 °F 36.5 °F 70% 30.32 in 10.0 mi East 10.4 mph - 0.00 in   Light Drizzle
2:03 AM 46.4 °F 41.5 °F 35.6 °F 66% 30.32 in 10.0 mi East 10.4 mph - N/A   Overcast
2:17 AM 46.4 °F 42.4 °F 35.6 °F 66% 30.31 in 10.0 mi East 8.1 mph - N/A   Light Drizzle
2:22 AM 46.4 °F 41.1 °F 35.6 °F 66% 30.31 in 10.0 mi East 11.5 mph - N/A   Overcast
2:23 AM 46.4 °F 41.5 °F 35.6 °F 66% 30.31 in 10.0 mi East 10.4 mph - N/A   Light Drizzle
2:55 AM 44.1 °F 39.0 °F 37.8 °F 78% 30.31 in 10.0 mi East 9.2 mph - 0.01 in Rain Light Rain
3:31 AM 42.8 °F 36.6 °F 39.2 °F 87% 30.28 in 8.0 mi East 11.5 mph - N/A Rain Light Rain
3:55 AM 41.7 °F 35.6 °F 39.4 °F 91% 30.26 in 8.0 mi East 10.4 mph - 0.04 in Rain Light Rain
4:10 AM 41.0 °F 34.7 °F 39.2 °F 93% 30.26 in 7.0 mi East 10.4 mph - N/A Rain Light Rain
4:11 AM 41.0 °F 34.7 °F 39.2 °F 93% 30.26 in 6.0 mi East 10.4 mph - N/A Rain Light Rain
4:18 AM 41.0 °F 34.3 °F 41.0 °F 100% 30.25 in 4.0 mi East 11.5 mph - N/A Rain Light Rain
4:19 AM 41.0 °F 34.7 °F 41.0 °F 100% 30.25 in 4.0 mi East 10.4 mph - N/A Rain Light Rain
4:28 AM 41.0 °F 34.7 °F 41.0 °F 100% 30.25 in 4.0 mi East 10.4 mph - N/A Rain Light Rain
4:32 AM 41.0 °F 34.7 °F 41.0 °F 100% 30.25 in 5.0 mi East 10.4 mph - N/A Rain Light Rain
4:38 AM 41.0 °F 33.9 °F 41.0 °F 100% 30.24 in 4.0 mi East 12.7 mph - N/A Rain Light Rain
4:43 AM 41.0 °F 34.3 °F 41.0 °F 100% 30.23 in 3.0 mi East 11.5 mph - N/A Rain Light Rain
4:51 AM 41.0 °F 33.9 °F 41.0 °F 100% 30.23 in 4.0 mi East 12.7 mph - N/A Rain Light Rain
4:55 AM 40.1 °F 33.6 °F 40.1 °F 100% 30.22 in 5.0 mi East 10.4 mph - 0.06 in Rain Light Rain
4:56 AM 41.0 °F 34.3 °F 41.0 °F 100% 30.22 in 6.0 mi East 11.5 mph - N/A Rain Light Rain
5:06 AM 41.0 °F 34.7 °F 41.0 °F 100% 30.22 in 9.0 mi East 10.4 mph - N/A   Overcast
5:12 AM 41.0 °F 34.3 °F 41.0 °F 100% 30.21 in 9.0 mi East 11.5 mph - N/A   Light Drizzle
5:26 AM 41.0 °F 35.2 °F 41.0 °F 100% 30.20 in 10.0 mi East 9.2 mph - N/A   Overcast
5:53 AM 41.0 °F 35.8 °F 39.2 °F 93% 30.21 in 10.0 mi East 8.1 mph - N/A   Overcast
5:55 AM 40.3 °F 34.9 °F 40.1 °F 99% 30.21 in 10.0 mi East 8.1 mph - 0.00 in   Overcast
6:06 AM 41.0 °F 35.8 °F 41.0 °F 100% 30.22 in 9.0 mi East 8.1 mph - N/A   Overcast
6:25 AM 41.0 °F 35.8 °F 41.0 °F 100% 30.21 in 4.0 mi East 8.1 mph - N/A   Overcast
6:31 AM 41.0 °F 34.7 °F 41.0 °F 100% 30.18 in 4.0 mi East 10.4 mph - N/A   Light Drizzle
6:33 AM 41.0 °F 35.2 °F 41.0 °F 100% 30.21 in 5.0 mi East 9.2 mph - N/A   Overcast
6:38 AM 39.2 °F 32.0 °F 39.2 °F 100% 30.17 in 5.0 mi East 11.5 mph - N/A   Light Drizzle
6:47 AM 39.2 °F 33.6 °F 39.2 °F 100% 30.19 in 4.0 mi East 8.1 mph - N/A   Light Drizzle
6:54 AM 39.2 °F 32.5 °F 39.2 °F 100% 30.19 in 4.0 mi East 10.4 mph - N/A   Light Drizzle
6:55 AM 39.9 °F 34.5 °F 39.9 °F 100% 30.19 in 4.0 mi East 8.1 mph - 0.03 in   Light Drizzle
7:01 AM 39.2 °F 33.0 °F 39.2 °F 100% 30.20 in 4.0 mi East 9.2 mph - N/A   Light Drizzle
7:17 AM 41.0 °F 35.8 °F 41.0 °F 100% 30.19 in 6.0 mi East 8.1 mph - N/A   Overcast
7:55 AM 40.8 °F 35.0 °F 40.8 °F 100% 30.17 in 9.0 mi East 9.2 mph - 0.01 in   Overcast
8:43 AM 41.0 °F 35.8 °F 41.0 °F 100% 30.17 in 2.5 mi East 8.1 mph - N/A   Overcast
8:51 AM 42.8 °F 37.5 °F 42.8 °F 100% 30.17 in 3.0 mi East 9.2 mph - N/A   Overcast
8:55 AM 42.1 °F 36.1 °F 42.1 °F 100% 30.17 in 3.0 mi ESE 10.4 mph - N/A   Overcast
9:55 AM 44.2 °F 38.8 °F 44.2 °F 100% 30.14 in 9.0 mi ESE 10.4 mph - N/A   Overcast
10:15 AM 44.6 °F 38.1 °F 44.6 °F 100% 30.12 in 4.0 mi ESE 13.8 mph - N/A   Overcast
10:30 AM 44.6 °F 37.8 °F 44.6 °F 100% 30.10 in 2.5 mi ESE 15.0 mph - N/A   Overcast
10:44 AM 46.4 °F 40.1 °F 46.4 °F 100% 30.08 in 2.0 mi ESE 15.0 mph - N/A   Overcast
10:48 AM 46.4 °F 39.2 °F 46.4 °F 100% 30.07 in 1.8 mi ESE 18.4 mph - N/A   Overcast
10:54 AM 46.4 °F 39.8 °F 46.4 °F 100% 30.06 in 2.0 mi ESE 16.1 mph - N/A   Overcast
10:55 AM 46.0 °F 39.0 °F 46.0 °F 100% 30.06 in 2.0 mi ESE 17.3 mph - N/A   Overcast
11:00 AM 46.4 °F 40.1 °F 46.4 °F 100% 30.05 in 3.0 mi ESE 15.0 mph - N/A   Overcast
11:08 AM 46.4 °F 39.5 °F 46.4 °F 100% 30.06 in 6.0 mi SE 17.3 mph - N/A   Overcast
11:55 AM 47.7 °F - 47.7 °F 100% 30.04 in 8.0 mi SE 12.7 mph - N/A   Overcast
11:57 AM 48.2 °F - 48.2 °F 100% 30.04 in 5.0 mi SE 12.7 mph - N/A   Light Drizzle
12:06 PM 48.2 °F - 48.2 °F 100% 30.02 in 3.0 mi ESE 12.7 mph - N/A   Light Drizzle
12:14 PM 48.2 °F - 48.2 °F 100% 30.01 in 7.0 mi SE 13.8 mph - N/A Rain Light Rain
12:27 PM 48.2 °F - 48.2 °F 100% 30.01 in 6.0 mi SE 12.7 mph - N/A   Overcast
12:55 PM 48.9 °F - 48.9 °F 100% 29.99 in 10.0 mi ESE 12.7 mph - 0.00 in   Overcast
1:19 PM 50.0 °F - 50.0 °F 100% 29.98 in 10.0 mi SE 8.1 mph - N/A   Overcast
1:43 PM 50.0 °F - 50.0 °F 100% 29.95 in 10.0 mi ESE 10.4 mph - N/A   Overcast
1:55 PM 49.8 °F - 49.8 °F 100% 29.95 in 8.0 mi ESE 11.5 mph - N/A   Overcast
2:21 PM 50.0 °F - 50.0 °F 100% 29.93 in 2.5 mi East 6.9 mph - N/A   Overcast
2:34 PM 50.0 °F - 50.0 °F 100% 29.93 in 1.8 mi ESE 9.2 mph - N/A   Overcast
2:55 PM 50.2 °F - 50.2 °F 100% 29.93 in 1.5 mi ESE 8.1 mph - N/A   Overcast
3:16 PM 50.0 °F - 50.0 °F 100% 29.93 in 2.0 mi ESE 9.2 mph - N/A   Overcast
3:32 PM 50.0 °F - 50.0 °F 100% 29.91 in 2.5 mi ESE 9.2 mph - N/A   Overcast
3:55 PM 50.7 °F - 50.7 °F 100% 29.91 in 3.0 mi ESE 4.6 mph - N/A   Overcast
4:04 PM 50.0 °F - 50.0 °F 100% 29.91 in 1.8 mi SSE 3.5 mph - N/A   Overcast
4:08 PM 50.0 °F - 50.0 °F 100% 29.91 in 2.0 mi SSE 3.5 mph - N/A   Overcast
4:25 PM 50.0 °F - 50.0 °F 100% 29.92 in 2.0 mi Calm Calm - N/A   Light Drizzle
4:28 PM 50.0 °F - 50.0 °F 100% 29.92 in 1.8 mi Calm Calm - N/A   Light Drizzle
4:37 PM 50.0 °F - 50.0 °F 100% 29.91 in 2.0 mi Calm Calm - N/A   Overcast
4:43 PM 50.0 °F - 50.0 °F 100% 29.91 in 2.5 mi Calm Calm - N/A   Overcast
4:48 PM 50.0 °F - 50.0 °F 100% 29.91 in 2.0 mi Calm Calm - N/A   Overcast
4:55 PM 50.5 °F - 50.5 °F 100% 29.91 in 1.8 mi Calm Calm - 0.01 in   Overcast
5:17 PM 50.0 °F - 50.0 °F 100% 29.91 in 2.0 mi Calm Calm - N/A   Overcast
5:31 PM 50.0 °F - 50.0 °F 100% 29.91 in 1.8 mi Calm Calm - N/A   Overcast
5:37 PM 50.0 °F - 50.0 °F 100% 29.91 in 2.0 mi Calm Calm - N/A   Overcast
5:55 PM 50.5 °F - 50.5 °F 100% 29.90 in 1.2 mi Calm Calm - N/A   Overcast
6:01 PM 50.0 °F - 50.0 °F 100% 29.89 in 1.0 mi Calm Calm - N/A   Mist
6:05 PM 50.0 °F - 50.0 °F 100% 29.89 in 0.8 mi ENE 3.5 mph - N/A   Mist
6:31 PM 50.0 °F - 50.0 °F 100% 29.88 in 1.0 mi East 5.8 mph - N/A   Mist
6:38 PM 50.0 °F - 50.0 °F 100% 29.87 in 1.0 mi East 5.8 mph - N/A   Mist
6:44 PM 50.0 °F - 48.2 °F 94% 29.86 in 1.2 mi East 6.9 mph - N/A   Overcast
6:55 PM 50.7 °F - 49.5 °F 95% 29.85 in 1.2 mi East 8.1 mph - 0.01 in   Overcast
7:00 PM 51.8 °F - 48.2 °F 88% 29.84 in 3.0 mi East 8.1 mph - N/A   Overcast
7:06 PM 51.8 °F - 51.8 °F 100% 29.84 in 7.0 mi East 5.8 mph - N/A   Overcast
7:20 PM 51.8 °F - 50.0 °F 94% 29.83 in 2.5 mi East 4.6 mph - N/A   Overcast
7:24 PM 51.8 °F - 51.8 °F 100% 29.83 in 1.8 mi East 4.6 mph - N/A   Overcast
7:52 PM 51.8 °F - 51.8 °F 100% 29.82 in 3.0 mi ESE 6.9 mph - N/A   Overcast
7:55 PM 51.6 °F - 51.6 °F 100% 29.82 in 5.0 mi ESE 5.8 mph - N/A   Overcast
8:21 PM 51.8 °F - 51.8 °F 100% 29.83 in 8.0 mi SE 9.2 mph - N/A   Overcast
8:23 PM 51.8 °F - 51.8 °F 100% 29.84 in 7.0 mi SE 10.4 mph - N/A Rain Light Rain
8:28 PM 51.8 °F - 51.8 °F 100% 29.86 in 5.0 mi SW 12.7 mph 19.6 mph N/A Rain Rain
8:40 PM 51.8 °F - 51.8 °F 100% 29.86 in 10.0 mi West 11.5 mph - N/A   Overcast
8:52 PM 51.8 °F - 51.8 °F 100% 29.86 in 10.0 mi Variable 5.8 mph - N/A   Light Drizzle
8:55 PM 52.2 °F - 52.2 °F 100% 29.85 in 10.0 mi Variable 5.8 mph - 0.03 in Rain Light Rain
9:11 PM 51.8 °F - 51.8 °F 100% 29.84 in 10.0 mi West 3.5 mph - N/A   Mostly Cloudy
9:55 PM 49.3 °F - 49.3 °F 100% 29.83 in 10.0 mi South 4.6 mph - 0.00 in   Scattered Clouds
10:05 PM 48.2 °F - 48.2 °F 100% 29.83 in 2.5 mi SSE 4.6 mph - N/A   Mostly Cloudy
10:14 PM 46.4 °F 44.3 °F 46.4 °F 100% 29.83 in 1.8 mi South 4.6 mph - N/A   Mostly Cloudy
10:15 PM 46.4 °F 44.3 °F 46.4 °F 100% 29.83 in 1.5 mi South 4.6 mph - N/A   Mostly Cloudy
10:17 PM 48.2 °F - 48.2 °F 100% 29.83 in 1.2 mi South 4.6 mph - N/A   Mostly Cloudy
10:20 PM 48.2 °F - 48.2 °F 100% 29.83 in 1.5 mi South 4.6 mph - N/A   Mostly Cloudy
10:23 PM 48.2 °F - 48.2 °F 100% 29.83 in 1.8 mi South 5.8 mph - N/A   Mostly Cloudy
10:24 PM 48.2 °F - 48.2 °F 100% 29.83 in 2.5 mi South 5.8 mph - N/A   Mostly Cloudy
10:25 PM 48.2 °F - 48.2 °F 100% 29.83 in 3.0 mi South 5.8 mph - N/A   Mostly Cloudy
10:55 PM 48.6 °F - 48.6 °F 100% 29.85 in 10.0 mi South 5.8 mph - N/A   Overcast
11:55 PM 49.5 °F - 49.5 °F 100% 29.83 in 10.0 mi South 4.6 mph - N/A   Mostly Cloudy